IRIDIUM 65 [+]

Last updated on Tue Jun 26 2018 01:20:20 GMT+0100 (British Summer Time)

1 25288U 98021D 18176.63370978 .00000155 00000-0 48451-4 0 9998 2 25288 86.3966 67.7809 0002119 87.7219 272.4219 14.34218258 58265
UTC large
Height (km)
Speed (km/s)
/
Latitude / Longitude
Inclination (degrees)
Orbital Period (minutes)
Azimuth
Elevation
Range (km)
Doppler Factor

Next 0 passes for location: London (51.5072 / 0.1276)

Sorry there are no passes over London.